Time,TemperatureF,DewpointF,PressureIn,WindDirection,WindDirectionDegrees,WindSpeedMPH,WindSpeedGustMPH,Humidity,HourlyPrecipIn,Conditions,Clouds,dailyrainin,SoftwareType,DateUTC
2013-02-26 00:01:00,35.0,7.0,29.93,West,272,0.0,0.0,30,0.00,,,0.00,,2013-02-26 06:01:00,
2013-02-26 00:11:00,35.0,7.0,29.93,West,272,0.0,0.0,30,0.00,,,0.00,,2013-02-26 06:11:00,
2013-02-26 00:21:00,34.0,7.0,29.90,WNW,302,0.0,0.0,31,0.00,,,0.00,,2013-02-26 06:21:00,
2013-02-26 00:31:00,34.0,7.0,29.90,WNW,302,0.0,0.0,31,0.00,,,0.00,,2013-02-26 06:31:00,
2013-02-26 00:42:00,34.0,7.0,29.90,WNW,302,0.0,0.0,31,0.00,,,0.00,,2013-02-26 06:42:00,
2013-02-26 00:52:00,34.0,7.0,29.91,NW,312,0.0,0.0,31,0.00,,,0.00,,2013-02-26 06:52:00,
2013-02-26 01:01:00,34.0,7.0,29.91,NW,312,0.0,0.0,31,0.00,,,0.00,,2013-02-26 07:01:00,
2013-02-26 01:11:00,34.0,7.0,29.91,NW,312,0.0,0.0,31,0.00,,,0.00,,2013-02-26 07:11:00,
2013-02-26 01:22:00,33.0,6.0,29.90,WNW,301,0.0,0.0,31,0.00,,,0.00,,2013-02-26 07:22:00,
2013-02-26 01:31:00,33.0,6.0,29.90,WNW,301,0.0,0.0,31,0.00,,,0.00,,2013-02-26 07:31:00,
2013-02-26 01:42:00,33.0,6.0,29.90,WNW,301,0.0,0.0,31,0.00,,,0.00,,2013-02-26 07:42:00,
2013-02-26 01:52:00,33.0,6.0,29.89,WNW,301,0.0,0.0,31,0.00,,,0.00,,2013-02-26 07:52:00,
2013-02-26 02:01:00,33.0,6.0,29.89,WNW,301,0.0,0.0,31,0.00,,,0.00,,2013-02-26 08:01:00,
2013-02-26 02:11:00,34.0,6.0,29.88,WNW,292,0.0,0.0,30,0.00,,,0.00,,2013-02-26 08:11:00,
2013-02-26 02:21:00,34.0,6.0,29.88,WNW,292,0.0,0.0,30,0.00,,,0.00,,2013-02-26 08:21:00,
2013-02-26 02:31:00,34.0,6.0,29.88,WNW,292,0.0,0.0,30,0.00,,,0.00,,2013-02-26 08:31:00,
2013-02-26 02:42:00,34.0,6.0,29.88,WNW,292,0.0,0.0,30,0.00,,,0.00,,2013-02-26 08:42:00,
2013-02-26 02:52:00,33.0,6.0,29.86,WNW,292,0.0,0.0,31,0.00,,,0.00,,2013-02-26 08:52:00,
2013-02-26 03:01:00,33.0,6.0,29.86,WNW,292,0.0,0.0,31,0.00,,,0.00,,2013-02-26 09:01:00,
2013-02-26 03:11:00,33.0,6.0,29.86,WNW,292,0.0,0.0,31,0.00,,,0.00,,2013-02-26 09:11:00,
2013-02-26 03:21:00,32.0,4.0,29.84,WNW,292,0.0,0.0,30,0.00,,,0.00,,2013-02-26 09:21:00,
2013-02-26 03:31:00,32.0,4.0,29.84,WNW,292,0.0,0.0,30,0.00,,,0.00,,2013-02-26 09:31:00,
2013-02-26 03:43:00,32.0,4.0,29.84,WNW,292,0.0,0.0,30,0.00,,,0.00,,2013-02-26 09:43:00,
2013-02-26 03:52:00,33.0,4.0,29.85,SSW,209,0.0,0.0,29,0.00,,,0.00,,2013-02-26 09:52:00,
2013-02-26 04:01:00,33.0,4.0,29.85,SSW,209,0.0,0.0,29,0.00,,,0.00,,2013-02-26 10:01:00,
2013-02-26 04:11:00,33.0,4.0,29.85,SSW,209,0.0,0.0,29,0.00,,,0.00,,2013-02-26 10:11:00,
2013-02-26 04:21:00,33.0,5.0,29.84,SW,217,0.0,0.0,30,0.00,,,0.00,,2013-02-26 10:21:00,
2013-02-26 04:31:00,33.0,5.0,29.84,SW,217,0.0,0.0,30,0.00,,,0.00,,2013-02-26 10:31:00,
2013-02-26 04:42:00,33.0,5.0,29.84,SW,217,0.0,0.0,30,0.00,,,0.00,,2013-02-26 10:42:00,
2013-02-26 04:52:00,33.0,6.0,29.85,South,172,0.0,11.0,31,0.00,,,0.00,,2013-02-26 10:52:00,
2013-02-26 05:01:00,33.0,6.0,29.85,South,172,0.0,11.0,31,0.00,,,0.00,,2013-02-26 11:01:00,
2013-02-26 05:12:00,33.0,6.0,29.85,South,172,0.0,11.0,31,0.00,,,0.00,,2013-02-26 11:12:00,
2013-02-26 05:21:00,31.0,5.0,29.83,South,182,0.0,2.0,33,0.00,,,0.00,,2013-02-26 11:21:00,
2013-02-26 05:32:00,31.0,5.0,29.83,South,182,0.0,2.0,33,0.00,,,0.00,,2013-02-26 11:32:00,
2013-02-26 05:42:00,31.0,5.0,29.83,South,182,0.0,2.0,33,0.00,,,0.00,,2013-02-26 11:42:00,
2013-02-26 05:52:00,30.0,4.0,29.83,SW,220,0.0,0.0,33,0.00,,,0.00,,2013-02-26 11:52:00,
2013-02-26 06:01:00,30.0,4.0,29.83,SW,220,0.0,0.0,33,0.00,,,0.00,,2013-02-26 12:01:00,
2013-02-26 06:11:00,30.0,4.0,29.83,SW,220,0.0,0.0,33,0.00,,,0.00,,2013-02-26 12:11:00,
2013-02-26 06:22:00,32.0,5.0,29.85,SSW,212,1.0,8.0,31,0.00,,,0.00,,2013-02-26 12:22:00,
2013-02-26 06:32:00,32.0,5.0,29.85,SSW,212,1.0,8.0,31,0.00,,,0.00,,2013-02-26 12:32:00,
2013-02-26 06:42:00,32.0,5.0,29.85,SSW,212,1.0,8.0,31,0.00,,,0.00,,2013-02-26 12:42:00,
2013-02-26 06:53:00,32.0,4.0,29.85,SW,227,0.0,5.0,30,0.00,,,0.00,,2013-02-26 12:53:00,
2013-02-26 07:01:00,32.0,4.0,29.85,SW,227,0.0,5.0,30,0.00,,,0.00,,2013-02-26 13:01:00,
2013-02-26 07:11:00,32.0,4.0,29.85,SW,227,0.0,5.0,30,0.00,,,0.00,,2013-02-26 13:11:00,
2013-02-26 07:21:00,32.0,3.0,29.84,SSW,200,2.0,8.0,29,0.00,,,0.00,,2013-02-26 13:21:00,
2013-02-26 07:32:00,32.0,3.0,29.84,SSW,200,2.0,8.0,29,0.00,,,0.00,,2013-02-26 13:32:00,
2013-02-26 07:42:00,32.0,3.0,29.84,SSW,200,2.0,8.0,29,0.00,,,0.00,,2013-02-26 13:42:00,
2013-02-26 07:52:00,32.0,4.0,29.84,SSW,210,0.0,5.0,30,0.00,,,0.00,,2013-02-26 13:52:00,
2013-02-26 08:01:00,32.0,4.0,29.84,SSW,210,0.0,5.0,30,0.00,,,0.00,,2013-02-26 14:01:00,
2013-02-26 08:11:00,32.0,4.0,29.84,SSW,210,0.0,5.0,30,0.00,,,0.00,,2013-02-26 14:11:00,
2013-02-26 08:21:00,31.0,4.0,29.84,SSW,205,0.0,0.0,31,0.00,,,0.00,,2013-02-26 14:21:00,
2013-02-26 08:32:00,31.0,4.0,29.84,SSW,205,0.0,0.0,31,0.00,,,0.00,,2013-02-26 14:32:00,
2013-02-26 08:42:00,31.0,4.0,29.84,SSW,205,0.0,0.0,31,0.00,,,0.00,,2013-02-26 14:42:00,
2013-02-26 08:52:00,35.0,4.0,29.85,SW,227,0.0,10.0,27,0.00,,,0.00,,2013-02-26 14:52:00,
2013-02-26 09:02:00,35.0,4.0,29.85,SW,227,0.0,10.0,27,0.00,,,0.00,,2013-02-26 15:02:00,
2013-02-26 09:11:00,35.0,4.0,29.85,SW,227,0.0,10.0,27,0.00,,,0.00,,2013-02-26 15:11:00,
2013-02-26 09:21:00,39.0,5.0,29.85,West,264,2.0,11.0,24,0.00,,,0.00,,2013-02-26 15:21:00,
2013-02-26 09:32:00,39.0,5.0,29.85,West,264,2.0,11.0,24,0.00,,,0.00,,2013-02-26 15:32:00,
2013-02-26 09:42:00,39.0,5.0,29.85,West,264,2.0,11.0,24,0.00,,,0.00,,2013-02-26 15:42:00,
2013-02-26 09:52:00,43.0,6.0,29.87,West,261,6.0,12.0,21,0.00,,,0.00,,2013-02-26 15:52:00,
2013-02-26 10:01:00,43.0,6.0,29.87,West,261,6.0,12.0,21,0.00,,,0.00,,2013-02-26 16:01:00,
2013-02-26 10:11:00,43.0,6.0,29.87,West,261,6.0,12.0,21,0.00,,,0.00,,2013-02-26 16:11:00,
2013-02-26 10:22:00,46.0,7.0,29.87,West,277,3.0,12.0,20,0.00,,,0.00,,2013-02-26 16:22:00,
2013-02-26 10:32:00,46.0,7.0,29.87,West,277,3.0,12.0,20,0.00,,,0.00,,2013-02-26 16:32:00,
2013-02-26 10:42:00,46.0,7.0,29.87,West,277,3.0,12.0,20,0.00,,,0.00,,2013-02-26 16:42:00,
2013-02-26 10:52:00,49.0,7.0,29.85,SW,232,3.0,16.0,18,0.00,,,0.00,,2013-02-26 16:52:00,
2013-02-26 11:01:00,49.0,7.0,29.85,SW,232,3.0,16.0,18,0.00,,,0.00,,2013-02-26 17:01:00,
2013-02-26 11:11:00,53.0,7.0,29.86,WSW,241,6.0,14.0,15,0.00,,,0.00,,2013-02-26 17:11:00,
2013-02-26 11:21:00,53.0,7.0,29.86,WSW,241,6.0,14.0,15,0.00,,,0.00,,2013-02-26 17:21:00,
2013-02-26 11:32:00,53.0,7.0,29.86,WSW,241,6.0,14.0,15,0.00,,,0.00,,2013-02-26 17:32:00,
2013-02-26 11:42:00,53.0,7.0,29.86,WSW,241,6.0,14.0,15,0.00,,,0.00,,2013-02-26 17:42:00,
2013-02-26 11:52:00,54.0,6.0,29.86,West,271,8.0,14.0,14,0.00,,,0.00,,2013-02-26 17:52:00,
2013-02-26 12:01:00,54.0,6.0,29.86,West,271,8.0,14.0,14,0.00,,,0.00,,2013-02-26 18:01:00,
2013-02-26 12:12:00,54.0,6.0,29.86,West,271,8.0,14.0,14,0.00,,,0.00,,2013-02-26 18:12:00,
2013-02-26 12:21:00,56.0,7.0,29.85,West,271,4.0,20.0,14,0.00,,,0.00,,2013-02-26 18:21:00,
2013-02-26 12:32:00,56.0,7.0,29.85,West,271,4.0,20.0,14,0.00,,,0.00,,2013-02-26 18:32:00,
2013-02-26 12:42:00,56.0,7.0,29.85,West,271,4.0,20.0,14,0.00,,,0.00,,2013-02-26 18:42:00,
2013-02-26 12:52:00,58.0,7.0,29.83,West,278,2.0,9.0,13,0.00,,,0.00,,2013-02-26 18:52:00,
2013-02-26 13:01:00,58.0,7.0,29.83,West,278,2.0,9.0,13,0.00,,,0.00,,2013-02-26 19:01:00,
2013-02-26 13:11:00,58.0,7.0,29.83,West,278,2.0,9.0,13,0.00,,,0.00,,2013-02-26 19:11:00,
2013-02-26 13:22:00,59.0,8.0,29.83,WSW,253,2.0,12.0,13,0.00,,,0.00,,2013-02-26 19:22:00,
2013-02-26 13:32:00,59.0,8.0,29.83,WSW,253,2.0,12.0,13,0.00,,,0.00,,2013-02-26 19:32:00,
2013-02-26 13:52:00,61.0,8.0,29.80,SSW,208,5.0,13.0,12,0.00,,,0.00,,2013-02-26 19:52:00,
2013-02-26 14:21:00,61.0,2.0,29.77,NW,309,8.0,17.0,9,0.00,,,0.00,,2013-02-26 20:21:00,
2013-02-26 14:31:00,61.0,2.0,29.77,NW,309,8.0,17.0,9,0.00,,,0.00,,2013-02-26 20:31:00,
2013-02-26 14:42:00,61.0,2.0,29.77,NW,309,8.0,17.0,9,0.00,,,0.00,,2013-02-26 20:42:00,
2013-02-26 14:52:00,63.0,1.0,29.77,West,267,2.0,12.0,8,0.00,,,0.00,,2013-02-26 20:52:00,
2013-02-26 15:01:00,63.0,1.0,29.77,West,267,2.0,12.0,8,0.00,,,0.00,,2013-02-26 21:01:00,
2013-02-26 15:11:00,63.0,1.0,29.77,West,267,2.0,12.0,8,0.00,,,0.00,,2013-02-26 21:11:00,
2013-02-26 15:21:00,63.0,1.0,29.76,WSW,258,0.0,20.0,8,0.00,,,0.00,,2013-02-26 21:21:00,
2013-02-26 15:31:00,63.0,1.0,29.76,WSW,258,0.0,20.0,8,0.00,,,0.00,,2013-02-26 21:31:00,
2013-02-26 15:41:00,63.0,1.0,29.76,WSW,258,0.0,20.0,8,0.00,,,0.00,,2013-02-26 21:41:00,
2013-02-26 15:51:00,63.0,1.0,29.75,WNW,302,2.0,16.0,8,0.00,,,0.00,,2013-02-26 21:51:00,
2013-02-26 16:01:00,63.0,1.0,29.75,WNW,302,2.0,16.0,8,0.00,,,0.00,,2013-02-26 22:01:00,
2013-02-26 16:11:00,62.0,0.0,29.75,West,280,7.0,19.0,8,0.00,,,0.00,,2013-02-26 22:11:00,
2013-02-26 16:21:00,62.0,0.0,29.75,West,280,7.0,19.0,8,0.00,,,0.00,,2013-02-26 22:21:00,
2013-02-26 16:31:00,62.0,0.0,29.75,West,280,7.0,19.0,8,0.00,,,0.00,,2013-02-26 22:31:00,
2013-02-26 16:42:00,62.0,0.0,29.75,West,280,7.0,19.0,8,0.00,,,0.00,,2013-02-26 22:42:00,
2013-02-26 16:52:00,60.0,1.0,29.75,SW,226,0.0,22.0,9,0.00,,,0.00,,2013-02-26 22:52:00,
2013-02-26 17:01:00,60.0,1.0,29.75,SW,226,0.0,22.0,9,0.00,,,0.00,,2013-02-26 23:01:00,
2013-02-26 17:11:00,60.0,1.0,29.75,SW,226,0.0,22.0,9,0.00,,,0.00,,2013-02-26 23:11:00,
2013-02-26 17:21:00,62.0,3.0,29.76,West,277,6.0,18.0,9,0.00,,,0.00,,2013-02-26 23:21:00,
2013-02-26 17:31:00,62.0,3.0,29.76,West,277,6.0,18.0,9,0.00,,,0.00,,2013-02-26 23:31:00,
2013-02-26 17:42:00,62.0,3.0,29.76,West,277,6.0,18.0,9,0.00,,,0.00,,2013-02-26 23:42:00,
2013-02-26 17:52:00,61.0,2.0,29.75,WNW,282,6.0,16.0,9,0.00,,,0.00,,2013-02-26 23:52:00,
2013-02-26 18:01:00,61.0,2.0,29.75,WNW,282,6.0,16.0,9,0.00,,,0.00,,2013-02-27 00:01:00,
2013-02-26 18:11:00,61.0,2.0,29.75,WNW,282,6.0,16.0,9,0.00,,,0.00,,2013-02-27 00:11:00,
2013-02-26 18:21:00,58.0,0.0,29.75,West,277,8.0,19.0,9,0.00,,,0.00,,2013-02-27 00:21:00,
2013-02-26 18:31:00,58.0,0.0,29.75,West,277,8.0,19.0,9,0.00,,,0.00,,2013-02-27 00:31:00,
2013-02-26 18:42:00,58.0,0.0,29.75,West,277,8.0,19.0,9,0.00,,,0.00,,2013-02-27 00:42:00,
2013-02-26 18:52:00,55.0,-1.0,29.75,WNW,288,1.0,18.0,10,0.00,,,0.00,,2013-02-27 00:52:00,
2013-02-26 19:01:00,55.0,-1.0,29.75,WNW,288,1.0,18.0,10,0.00,,,0.00,,2013-02-27 01:01:00,
2013-02-26 19:11:00,55.0,-1.0,29.75,WNW,288,1.0,18.0,10,0.00,,,0.00,,2013-02-27 01:11:00,
2013-02-26 19:21:00,53.0,0.0,29.78,WSW,247,5.0,19.0,11,0.00,,,0.00,,2013-02-27 01:21:00,
2013-02-26 19:32:00,53.0,0.0,29.78,WSW,247,5.0,19.0,11,0.00,,,0.00,,2013-02-27 01:32:00,
2013-02-26 19:42:00,53.0,0.0,29.78,WSW,247,5.0,19.0,11,0.00,,,0.00,,2013-02-27 01:42:00,
2013-02-26 19:52:00,51.0,0.0,29.78,SSW,199,0.0,12.0,12,0.00,,,0.00,,2013-02-27 01:52:00,
2013-02-26 20:01:00,51.0,0.0,29.78,SSW,199,0.0,12.0,12,0.00,,,0.00,,2013-02-27 02:01:00,
2013-02-26 20:14:00,51.0,0.0,29.78,SSW,199,0.0,12.0,12,0.00,,,0.00,,2013-02-27 02:14:00,
2013-02-26 20:23:00,49.0,0.0,29.79,SW,227,4.0,12.0,13,0.00,,,0.00,,2013-02-27 02:23:00,
2013-02-26 20:32:00,49.0,0.0,29.79,SW,227,4.0,12.0,13,0.00,,,0.00,,2013-02-27 02:32:00,
2013-02-26 20:42:00,49.0,0.0,29.79,SW,227,4.0,12.0,13,0.00,,,0.00,,2013-02-27 02:42:00,
2013-02-26 20:52:00,49.0,0.0,29.80,WNW,287,5.0,17.0,13,0.00,,,0.00,,2013-02-27 02:52:00,
2013-02-26 21:01:00,49.0,0.0,29.80,WNW,287,5.0,17.0,13,0.00,,,0.00,,2013-02-27 03:01:00,
2013-02-26 21:11:00,49.0,0.0,29.80,WNW,287,5.0,17.0,13,0.00,,,0.00,,2013-02-27 03:11:00,
2013-02-26 21:21:00,49.0,-1.0,29.82,SW,230,0.0,13.0,12,0.00,,,0.00,,2013-02-27 03:21:00,
2013-02-26 21:32:00,49.0,-1.0,29.82,SW,230,0.0,13.0,12,0.00,,,0.00,,2013-02-27 03:32:00,
2013-02-26 21:42:00,49.0,-1.0,29.82,SW,230,0.0,13.0,12,0.00,,,0.00,,2013-02-27 03:42:00,
2013-02-26 21:52:00,49.0,0.0,29.83,NW,305,0.0,7.0,13,0.00,,,0.00,,2013-02-27 03:52:00,
2013-02-26 22:01:00,49.0,0.0,29.83,NW,305,0.0,7.0,13,0.00,,,0.00,,2013-02-27 04:01:00,
2013-02-26 22:11:00,49.0,0.0,29.83,NW,305,0.0,7.0,13,0.00,,,0.00,,2013-02-27 04:11:00,
2013-02-26 22:21:00,49.0,0.0,29.83,West,281,0.0,1.0,13,0.00,,,0.00,,2013-02-27 04:21:00,
2013-02-26 22:32:00,49.0,0.0,29.83,West,281,0.0,1.0,13,0.00,,,0.00,,2013-02-27 04:32:00,
2013-02-26 22:42:00,49.0,0.0,29.83,West,281,0.0,1.0,13,0.00,,,0.00,,2013-02-27 04:42:00,
2013-02-26 22:52:00,49.0,0.0,29.85,WNW,284,0.0,1.0,13,0.00,,,0.00,,2013-02-27 04:52:00,
2013-02-26 23:01:00,49.0,0.0,29.85,WNW,284,0.0,1.0,13,0.00,,,0.00,,2013-02-27 05:01:00,
2013-02-26 23:12:00,49.0,0.0,29.85,WNW,284,0.0,1.0,13,0.00,,,0.00,,2013-02-27 05:12:00,
2013-02-26 23:22:00,48.0,0.0,29.84,WNW,294,4.0,13.0,13,0.00,,,0.00,,2013-02-27 05:22:00,
2013-02-26 23:32:00,48.0,0.0,29.84,WNW,294,4.0,13.0,13,0.00,,,0.00,,2013-02-27 05:32:00,
2013-02-26 23:42:00,48.0,0.0,29.84,WNW,294,4.0,13.0,13,0.00,,,0.00,,2013-02-27 05:42:00,
2013-02-26 23:52:00,48.0,0.0,29.84,WNW,287,7.0,20.0,13,0.00,,,0.00,,2013-02-27 05:52:00,